[Iaude] MPEC V60: 2023 VQ1 [a=2.43,e=0.56,i=28.6,H=22.3]
    mpec at marsden.cfa.harvard.edu 
    mpec at marsden.cfa.harvard.edu
       
    Mon Nov  6 06:42:03 EST 2023
    
    
  
M.P.E.C. 2023-V60                              Issued 2023 November 6, 11:40 UT
     The Minor Planet Electronic Circulars contain information on unusual
         minor planets, routine data on comets and natural satellites,
         and occasional editorial announcements.  They are published
    on behalf of Division F of the International Astronomical Union by the
          Minor Planet Center, Smithsonian Astrophysical Observatory,
                          Cambridge, MA 02138, U.S.A.
			  
             Prepared using the Tamkin Foundation Computer Network
                              MPC at CFA.HARVARD.EDU
            URL https://www.minorplanetcenter.net/    ISSN 1523-6714
                                    2023 VQ1                                    
Observations:
     K23V01Q*1C2023 11 03.50521504 41 18.168+30 05 04.99         21.10GVEV060G96
     K23V01Q 1C2023 11 03.51029604 41 18.373+30 05 39.98         20.11GVEV060G96
     K23V01Q 1C2023 11 03.51537004 41 18.553+30 06 15.88         21.04GVEV060G96
     K23V01Q 1C2023 11 03.53256404 41 19.170+30 08 14.80               VEV060G96
     K23V01Q 1C2023 11 03.53343604 41 19.220+30 08 19.90         20.98GVEV060G96
     K23V01Q 1C2023 11 03.53472004 41 19.160+30 08 29.40               VEV060G96
     K23V01Q KC2023 11 04.27526504 41 55.331+31 36 09.72         21.10GVEV060I52
     K23V01Q KC2023 11 04.27654204 41 55.334+31 36 19.22         20.77GVEV060I52
     K23V01Q KC2023 11 04.28863604 41 55.792+31 37 47.17         21.18GVEV060I52
     K23V01Q KC2023 11 04.29290404 41 55.961+31 38 17.59         21.61GVEV060I52
     K23V01Q KC2023 11 04.33933804 41 57.29 +31 43 54.2          21.1 GXEV060858
     K23V01Q KC2023 11 04.34845704 41 57.60 +31 44 59.9          21.5 GXEV060858
     K23V01Q KC2023 11 04.35776804 41 57.86 +31 46 07.9          20.5 GXEV060858
     K23V01Q KC2023 11 05.26794904 42 38.79 +33 37 56.3          21.6 GVEV060H21
     K23V01Q KC2023 11 05.27354104 42 38.93 +33 38 38.8          21.9 GVEV060H21
     K23V01Q KC2023 11 05.27913504 42 39.13 +33 39 20.4                VEV060H21
     K23V01Q KC2023 11 06.15210 04 43 16.03 +35 30 25.6                VEV060204
     K23V01Q KC2023 11 06.16508704 43 16.37 +35 32 05.1          20.8 GVEV060L01
     K23V01Q KC2023 11 06.16761104 43 16.40 +35 32 24.6          20.7 GVEV060L01
     K23V01Q KC2023 11 06.17013504 43 16.53 +35 32 44.0          20.8 GVEV060L01
     K23V01Q KC2023 11 06.17070 04 43 16.65 +35 32 49.4                VEV060204
     K23V01Q KC2023 11 06.17266004 43 16.59 +35 33 03.4          20.3 GVEV060L01
     K23V01Q KC2023 11 06.17518504 43 16.71 +35 33 23.3          20.3 GVEV060L01
     K23V01Q KC2023 11 06.18731 04 43 17.24 +35 34 57.5          20.6 GVEV060204
Observer details:
204 Schiaparelli Observatory.  Observers L. Buzzi, G. Galli.  0.84-m f/3.5
    reflector + CCD.
858 Tebbutt Observatory, Edgewood.  Observer F. B. Zoltowski.  0.51-m f/8.1
    Schmidt-Cassegrain + CCD.
G96 Mt. Lemmon Survey.  Observer J. B. Fazekas.  Measurers E. C. Beshore, D.
    Fay, J. B. Fazekas, D. C. Fuls, A. R. Gibbs, A. D. Grauer, H. Groeller, J.
    K. Hogan, R. A. Kowalski, S. M. Larson, G. J. Leonard, D. Rankin, R. L.
    Seaman, F. C. Shelly, K. W. Wierzchos.  1.5-m reflector + 10K CCD.
H21 Astronomical Research Observatory, Westfield.  Observer R. Holmes.
    Measurers T. Linder, R. Holmes, L. Horn.  0.76-m f/3.0 astrograph + CCD.
I52 Steward Observatory, Mt. Lemmon Station.  Observer D. Rankin.  Measurers
    E. C. Beshore, D. Fay, J. B. Fazekas, D. C. Fuls, A. R. Gibbs, A. D.
    Grauer, H. Groeller, J. K. Hogan, R. A. Kowalski, S. M. Larson, G. J.
    Leonard, D. Rankin, R. L. Seaman, F. C. Shelly, K. W. Wierzchos.  1.0-m
    prime focus + CCD.
L01 Visnjan Observatory, Tican.  Observer K. Korlevic.  1.0-m f/2.9 reflector
    + CCD.
Orbital elements:
2023 VQ1                                                 Earth MOID = 0.2240 AU
Epoch 2023 Sept. 13.0 TT = JDT 2460200.5                Veres                   
M 333.18866              (2000.0)            P               Q                  
n   0.26087274     Peri.   55.19589     -0.09330781     -0.93811913             
a   2.4257735      Node    44.18937     +0.68308029     -0.30401726             
e   0.5585365      Incl.   28.58523     +0.72435832     +0.16584936             
P   3.78           H   22.39          G   0.15           U   9                  
Residuals in seconds of arc
231103 G96  0.2+  0.0     231104 I52  0.0   0.3+    231106 204  0.1+  0.0
231103 G96  0.5+  0.2-    231104 I52  0.3+  0.3-    231106 L01  0.4+  0.2-
231103 G96  0.5+  0.5+    231104 858  0.2+  0.3+    231106 L01  0.4-  0.2-
231103 G96  0.3+  0.5+    231104 858  0.4+  0.1-    231106 L01  0.1+  0.2-
231103 G96  0.6+  0.5-    231104 858  0.1-  0.4+    231106 204  0.3-  0.3+
231103 G96  0.8-  0.2+    231105 H21  0.4+  0.0     231106 L01  0.3-  0.3-
231104 I52  0.0   0.0     231105 H21  0.1-  0.3+    231106 L01  0.1+  0.1+
231104 I52  0.6-  0.2+    231105 H21  0.2+  0.2-    231106 204  0.3-  0.2+
Ephemeris:
2023 VQ1                 a,e,i = 2.43, 0.56, 29                  q = 1.0709
Date    TT    R. A. (2000) Decl.     Delta      r    Elong.  Phase     V
2023 10 07    04 16 28.9 +01 14 17   0.5640  1.4179   127.9    33.8    23.3
...
2023 10 22    04 31 12.6 +11 57 03   0.3908  1.3158   139.0    29.7    22.2
...
2023 10 30    04 37 52.0 +22 12 04   0.3163  1.2652   144.9    26.8    21.6
...
2023 11 05    04 42 26.2 +33 04 33   0.2734  1.2297   146.8    26.2    21.2
2023 11 06    04 43 10.4 +35 10 50   0.2677  1.2240   146.7    26.4    21.2
2023 11 07    04 43 54.4 +37 21 56   0.2624  1.2184   146.4    26.8    21.1
...
2023 11 13    04 48 21.4 +51 51 39   0.2410  1.1864   140.8    31.8    21.0
...
2023 11 21    04 56 35.7 +72 09 45   0.2418  1.1485   126.5    43.7    21.3
...
2023 12 06    16 32 51.4 +80 21 59   0.3087  1.0958   102.8    61.3    22.2
M. P. C. Staff               (C) Copyright 2023 MPC           M.P.E.C. 2023-V60
    
    
More information about the Iaude
mailing list